Bloomington, IN

11:03 AM EDT on April 22, 2018 (GMT -0400)
Monroe County

Weather History for KBMG - January, 2006

Change the Weather History Date:

Sunday, January 22, 2006

  Actual Average Record
Temperature  
Mean Temperature 34 °F 30 °F  
Max Temperature 41 °F 39 °F 60 °F (2017)
Min Temperature 28 °F 20 °F -3 °F (2011)
Degree Days  
Heating Degree Days 30 36  
Month to date heating degree days 792  
Since 1 July heating degree days 2865  
Cooling Degree Days 0 0  
Month to date cooling degree days 0  
Year to date cooling degree days 0  
Moisture  
Dew Point 30 °F    
Average Humidity 79    
Maximum Humidity 89    
Minimum Humidity 65    
Precipitation  
Precipitation 0.11 in 0.08 in 1.09 in (1999)
Month to date precipitation 2.54  
Year to date precipitation 2.54  
Sea Level Pressure  
Sea Level Pressure 30.32 in    
Wind  
Wind Speed 6 mph (ENE)    
Max Wind Speed 9 mph    
Max Gust Speed -    
Visibility 9 miles    
Events Rain    
T = Trace of Precipitation, MM = Missing Value Source: NWS Daily Summary

Daily Weather History Graph

Daily Weather History Graph

Search for Another Location

Airport or City:

Astronomy

Jan. 22, 2006 Rise Set
Actual Time 8:00 AM EST 5:55 PM EST
Civil Twilight 7:31 AM EST 6:24 PM EST
Nautical Twilight 6:59 AM EST 6:57 PM EST
Astronomical Twilight 6:27 AM EST 7:29 PM EST
Moon 1:01 AM EST 11:49 AM EST
Length of Visible Light 10h 52m
Length of Day
9h 54m
Waning Gibbous, 49% of the Moon is Illuminated
Jan 22
Waning Gibbous
Jan 29
New
Feb 5
First Quarter
Feb 12
Full
Feb 21
Last Quarter

Hourly Weather History & Observations

Time (EST) Temp. Windchill Dew Point Humidity Pressure Visibility Wind Dir Wind Speed Gust Speed Precip Events Conditions
12:53 AM 28.9 °F - 26.1 °F 89% 30.47 in 9.0 mi Calm Calm - N/A   Clear
1:53 AM 33.1 °F 28.7 °F 27.0 °F 78% 30.45 in 10.0 mi ENE 4.6 mph - N/A   Clear
2:53 AM 33.1 °F 26.9 °F 28.0 °F 82% 30.45 in 10.0 mi ENE 6.9 mph - N/A   Clear
3:53 AM 33.1 °F 26.1 °F 28.0 °F 82% 30.43 in 10.0 mi East 8.1 mph - N/A   Clear
4:53 AM 32.0 °F 28.7 °F 26.1 °F 79% 30.44 in 10.0 mi East 3.5 mph - N/A   Clear
5:53 AM 32.0 °F 24.8 °F 27.0 °F 82% 30.42 in 10.0 mi ENE 8.1 mph - N/A   Clear
6:53 AM 32.0 °F 25.6 °F 27.0 °F 82% 30.43 in 10.0 mi East 6.9 mph - N/A   Clear
7:53 AM 32.0 °F 25.6 °F 26.1 °F 79% 30.41 in 10.0 mi East 6.9 mph - N/A   Clear
8:53 AM 33.1 °F 26.9 °F 27.0 °F 78% 30.42 in 10.0 mi ENE 6.9 mph - N/A   Clear
9:53 AM 35.1 °F 28.6 °F 28.0 °F 76% 30.43 in 10.0 mi East 8.1 mph - N/A   Clear
10:53 AM 36.0 °F 29.6 °F 28.9 °F 76% 30.44 in 10.0 mi East 8.1 mph - N/A   Clear
11:53 AM 37.9 °F 32.1 °F 28.9 °F 70% 30.38 in 10.0 mi East 8.1 mph - N/A   Clear
12:53 PM 39.0 °F 33.4 °F 28.9 °F 67% 30.36 in 10.0 mi NE 8.1 mph - N/A   Clear
1:53 PM 39.9 °F 35.1 °F 28.9 °F 65% 30.32 in 10.0 mi East 6.9 mph - N/A   Clear
2:53 PM 41.0 °F 35.2 °F 30.0 °F 65% 30.27 in 10.0 mi NNE 9.2 mph - N/A   Clear
3:53 PM 39.9 °F 35.8 °F 30.0 °F 68% 30.27 in 10.0 mi ESE 5.8 mph - N/A   Overcast
4:53 PM 39.9 °F 33.9 °F 30.0 °F 68% 30.26 in 10.0 mi East 9.2 mph - N/A   Overcast
5:53 PM 39.0 °F 34.0 °F 32.0 °F 76% 30.25 in 10.0 mi ESE 6.9 mph - 0.00 in Rain Light Rain
6:53 PM 37.9 °F 35.5 °F 34.0 °F 86% 30.25 in 6.0 mi NNE 3.5 mph - 0.03 in Rain Light Rain
7:53 PM 37.9 °F 35.5 °F 33.1 °F 83% 30.24 in 7.0 mi ENE 3.5 mph - 0.03 in Rain Light Rain
8:53 PM 37.0 °F 32.4 °F 34.0 °F 89% 30.21 in 7.0 mi North 5.8 mph - 0.01 in Rain Light Rain
9:53 PM 37.0 °F 31.0 °F 34.0 °F 89% 30.19 in 4.0 mi North 8.1 mph - 0.02 in Rain Light Rain
10:53 PM 37.0 °F 31.0 °F 34.0 °F 89% 30.18 in 5.0 mi North 8.1 mph - 0.02 in Rain Light Rain
11:15 PM 37.4 °F 32.1 °F 33.8 °F 87% 30.15 in 4.0 mi NNE 6.9 mph - 0.00 in   Overcast
11:29 PM 37.4 °F 31.4 °F 33.8 °F 87% 30.13 in 5.0 mi NE 8.1 mph - 0.00 in   Overcast
11:53 PM 37.0 °F 33.3 °F 33.1 °F 86% 30.14 in 6.0 mi NE 4.6 mph - 0.00 in   Overcast